Weather History for Scappoose, OR

Change the Weather History Date:

Thursday, November 7, 2013

  Actual Average Record
Temperature  
Mean Temperature 50 °F -  
Max Temperature 56 °F - 63 °F (2008)
Min Temperature 46 °F - 28 °F (2001)
Degree Days  
Heating Degree Days 14    
Month to date heating degree days 114  
Since 1 July heating degree days 684  
Cooling Degree Days 0    
Month to date cooling degree days 0  
Year to date cooling degree days 396  
Moisture  
Dew Point 47 °F    
Average Humidity 84    
Maximum Humidity 93    
Minimum Humidity 74    
Precipitation  
Precipitation 0.62 in - 0.76 in (2006)
Month to date precipitation 1.93  
Year to date precipitation 24.44  
Sea Level Pressure  
Sea Level Pressure 29.97 in    
Wind  
Wind Speed 5 mph (SSW)    
Max Wind Speed 23 mph    
Max Gust Speed 37 mph    
Visibility 7 miles    
Events Rain    
T = Trace of Precipitation, MM = Missing Value Source: NWS Daily Summary

Daily Weather History Graph

Daily Weather History Graph

Search for Another Location

Airport:

Trip Planner

Search our weather history database for the weather conditions in past years. The results will help you decide how hot, cold, wet, or windy it might be!

Date:

Astronomy

Nov. 07, 2013 Rise Set
Actual Time 7:00 AM PST 4:49 PM PST
Civil Twilight 6:28 AM PST 5:20 PM PST
Nautical Twilight 5:53 AM PST 5:56 PM PST
Astronomical Twilight 5:18 AM PST 6:31 PM PST
Moon 11:16 AM PST (11/7) 9:05 PM PST (11/7)
Length of Visible Light 10h 51m
Length of Day
9h 48m
Waxing Crescent, 24% of the Moon is Illuminated
Nov 7
Waxing Crescent
Nov 9
First Quarter
Nov 17
Full
Nov 25
Last Quarter
Dec 2
New

Hourly Weather History & Observations

Time (PST) Temp. Dew Point Humidity Pressure Visibility Wind Dir Wind Speed Gust Speed Precip Events Conditions
12:37 AM 50.0 °F 48.0 °F 93% 30.07 in 4.0 mi Calm Calm - 0.01 in Rain Light Rain
12:53 AM 50.0 °F 48.0 °F 93% 30.06 in 4.0 mi Calm Calm - 0.03 in Rain Rain
1:09 AM 50.0 °F 48.0 °F 93% 30.05 in 5.0 mi South 3.5 mph - 0.02 in Rain Light Rain
1:53 AM 50.0 °F 48.0 °F 93% 30.04 in 10.0 mi Calm Calm - 0.02 in Rain Light Rain
2:01 AM 50.0 °F 48.0 °F 93% 30.04 in 10.0 mi Calm Calm - 0.00 in Rain Light Rain
2:08 AM 50.0 °F 48.0 °F 93% 30.03 in 6.0 mi Calm Calm - 0.01 in Rain Light Rain
2:53 AM 50.0 °F 46.9 °F 89% 30.00 in 10.0 mi Calm Calm - 0.01 in   Overcast
3:04 AM 50.0 °F 46.9 °F 89% 30.00 in 10.0 mi SSW 4.6 mph - N/A   Overcast
3:51 AM 48.2 °F 46.4 °F 93% 29.97 in 9.0 mi SSE 5.8 mph - 0.05 in Rain Light Rain
3:53 AM 48.9 °F 46.9 °F 93% 29.97 in 10.0 mi SE 5.8 mph - 0.05 in Rain Light Rain
4:53 AM 50.0 °F 48.0 °F 93% 29.95 in 3.0 mi SSE 4.6 mph - 0.00 in Rain Light Rain
5:00 AM 50.0 °F 48.0 °F 93% 29.95 in 2.5 mi Calm Calm - 0.01 in Rain Light Rain
5:07 AM 50.0 °F 48.0 °F 93% 29.95 in 3.0 mi Calm Calm - 0.01 in Rain Light Rain
5:34 AM 50.0 °F 48.0 °F 93% 29.91 in 4.0 mi ENE 3.5 mph - 0.02 in Rain Light Rain
5:53 AM 50.0 °F 48.0 °F 93% 29.91 in 4.0 mi SW 3.5 mph - 0.02 in   Overcast
6:27 AM 51.1 °F 48.9 °F 92% 29.89 in 5.0 mi Calm Calm - 0.01 in Rain Light Rain
6:53 AM 51.1 °F 50.0 °F 96% 29.87 in 5.0 mi East 3.5 mph - 0.01 in Rain Light Rain
7:17 AM 55.0 °F 53.1 °F 93% 29.85 in 10.0 mi South 9.2 mph - 0.03 in   Overcast
7:53 AM 55.9 °F 53.1 °F 90% 29.86 in 3.0 mi South 9.2 mph - 0.08 in Rain Rain
7:56 AM 55.9 °F 53.1 °F 90% 29.85 in 2.5 mi Variable 4.6 mph - 0.01 in Rain Rain
8:03 AM 55.9 °F 52.0 °F 87% 29.87 in 2.5 mi SSW 9.2 mph - 0.04 in Rain Rain
8:16 AM 48.9 °F 43.0 °F 80% 29.89 in 1.8 mi West 12.7 mph 36.8 mph 0.12 in Rain Heavy Rain
8:21 AM 48.9 °F 43.0 °F 80% 29.89 in 3.0 mi West 15.0 mph 25.3 mph 0.12 in Rain Light Rain
8:28 AM 48.9 °F 43.0 °F 80% 29.89 in 9.0 mi WSW 8.1 mph 23.0 mph 0.13 in Rain Light Rain
8:53 AM 50.0 °F 43.0 °F 77% 29.91 in 10.0 mi West 4.6 mph - 0.14 in Rain Light Rain
9:53 AM 48.9 °F 46.0 °F 90% 29.93 in 10.0 mi Calm Calm - 0.10 in Rain Light Rain
10:53 AM 52.0 °F 45.0 °F 77% 29.92 in 10.0 mi South 6.9 mph - 0.00 in   Clear
11:16 AM 51.1 °F 46.0 °F 83% 29.93 in 10.0 mi SSE 8.1 mph - N/A   Mostly Cloudy
11:42 AM 54.0 °F 46.9 °F 77% 29.93 in 10.0 mi SSE 11.5 mph - N/A   Mostly Cloudy
11:53 AM 54.0 °F 46.9 °F 77% 29.93 in 10.0 mi SE 13.8 mph 20.7 mph N/A   Mostly Cloudy
12:53 PM 53.1 °F 46.9 °F 80% 29.93 in 8.0 mi South 6.9 mph - 0.02 in Rain Light Rain
1:53 PM 53.1 °F 46.0 °F 77% 29.94 in 10.0 mi SW 15.0 mph 24.2 mph 0.00 in Rain Light Rain
2:53 PM 53.1 °F 45.0 °F 74% 29.95 in 10.0 mi SSW 9.2 mph - 0.00 in Rain Light Rain
3:53 PM 51.1 °F 43.0 °F 74% 29.96 in 10.0 mi SSW 9.2 mph 17.3 mph 0.01 in   Overcast
4:53 PM 50.0 °F 44.1 °F 80% 29.98 in 10.0 mi SSW 8.1 mph - 0.01 in Rain Light Rain
5:53 PM 48.9 °F 44.1 °F 83% 30.01 in 7.0 mi South 6.9 mph - 0.04 in Rain Light Rain
6:53 PM 48.9 °F 45.0 °F 86% 30.04 in 10.0 mi SW 6.9 mph - 0.04 in Rain Light Rain
7:53 PM 48.9 °F 45.0 °F 86% 30.06 in 8.0 mi WSW 9.2 mph - 0.03 in Rain Light Rain
8:53 PM 48.9 °F 45.0 °F 86% 30.07 in 10.0 mi SSW 5.8 mph - 0.01 in   Overcast
9:53 PM 48.0 °F 45.0 °F 89% 30.09 in 10.0 mi Calm Calm - N/A   Overcast
10:53 PM 46.0 °F 44.1 °F 93% 30.10 in 10.0 mi Calm Calm - N/A   Scattered Clouds
11:53 PM 46.9 °F 44.1 °F 90% 30.11 in 10.0 mi Calm Calm - N/A   Clear